Find Starlink 34712

NORAD ID: 64907 Int'l Des: 2025-157 Owner: SPXS Country: US Constellation: starlink operational
LEOCIRCULAR

Aktuelle Ansicht

3D-Globus wird geladen...

Über Starlink 34712

Beschreibung wird geladen...

Nächste Überflüge

Passes for default location (London). Set your location on the main map for personalized predictions.

Höhenverlauf

Loading altitude history...

Zweizeiliger Elementsatz

1 64907U 25157D 26149.88174241 .00032000 00000-0 95430-3 0 9992
2 64907 53.1616 327.1953 0000615 81.3597 278.7475 15.34396543 48572
Epoch: 29. Mai 2026 • Age: 14 hours

Aktueller Status

Höhe 479.6 km
Geschwindigkeit 7.63 km/s
Subsatellitenpunkt -48.36°S, 152.32°E
Startdatum 26. Juli 2025
Alter 0.8 years
Typ internet

Technische Details

Klassifizierung Payload
Masse 575.00 kg
Trockenmasse 530.00 kg
Gesamtmasse 575.00 kg
Länge 0.30 m
Durchmesser 4.10 m
Spannweite 29.00 m
Form Box + pan
Hersteller SPXS
Bus-Typ Starlink V2MO
Phasenstatus In Orbit
Besitzer/Staat SPXS/US

Most Searched